EW5738 Weather Reports


Display with metric or nautical units.
time (UTC)temp
F
wind
direction
speed
MPH
gust
MPH
rain 1hr
in
rain 24hr
in
rain mn
in
humidity
%
barometer
mb
20260902140112 59 279 2.0 5.0 0.00 0.00 0.00 86 1021.2
20260902134601 59 297 2.0 3.0 0.00 0.00 0.00 85 1021.3
20260902133109 60 331 2.0 4.0 0.00 0.00 0.00 84 1021.3
20260902130051 61 314 1.0 3.0 0.00 0.00 0.00 81 1021.4
20260902124549 63 1 2.0 3.0 0.00 0.00 0.00 78 1021.4
20260902123105 63 1 2.0 3.0 0.00 0.00 0.00 78 1021.4
20260902121557 63 11 2.0 4.0 0.00 0.00 0.00 78 1021.4
20260902114546 63 331 1.0 4.0 0.00 0.00 0.00 78 1021.5
20260902113044 64 347 1.0 2.0 0.00 0.00 0.00 78 1021.5
20260902111554 64 1 1.0 3.0 0.00 0.00 0.00 77 1021.4
20260902110043 64 339 2.0 5.0 0.00 0.00 0.00 77 1021.4
20260902104542 64 335 0.0 4.0 0.00 0.00 0.00 78 1021.5
20260902103043 64 327 1.0 4.0 0.00 0.00 0.00 78 1021.4
20260902100032 65 331 1.0 3.0 0.00 0.00 0.00 79 1021.1
20260902094530 65 1 1.0 3.0 0.00 0.00 0.00 79 1021.0
20260902093028 65 340 0.0 3.0 0.00 0.00 0.00 79 1020.9
20260902091528 65 314 2.0 4.0 0.00 0.00 0.00 80 1020.8
20260902090029 66 340 2.0 3.0 0.00 0.00 0.00 78 1020.8
20260902084525 68 322 1.0 4.0 0.00 0.00 0.00 76 1020.7
20260902083024 68 344 2.0 5.0 0.00 0.00 0.00 75 1020.4
20260902081523 69 342 2.0 5.0 0.00 0.00 0.00 74 1020.5
20260902080021 69 13 3.0 6.0 0.00 0.00 0.00 72 1020.3
20260902074521 70 1 3.0 6.0 0.00 0.00 0.00 70 1020.1
20260902073019 71 346 3.0 7.0 0.00 0.00 0.00 67 1020.0
20260902071521 71 337 3.0 9.0 0.00 0.00 0.00 68 1019.9
20260902070017 72 1 1.0 5.0 0.00 0.00 0.00 69 1019.6
20260902064519 72 318 2.0 4.0 0.00 0.00 0.00 67 1019.6
20260902061520 73 344 3.0 9.0 0.00 0.00 0.00 61 1019.6
20260902060009 74 305 3.0 7.0 0.00 0.00 0.00 59 1019.6
20260902054507 75 1 1.0 5.0 0.00 0.00 0.00 62 1019.6
20260902053005 75 295 3.0 8.0 0.00 0.00 0.00 63 1019.7
20260902051505 75 49 2.0 7.0 0.00 0.00 0.00 62 1019.7
20260902050008 75 84 2.0 8.0 0.00 0.00 0.00 62 1019.9
20260902044501 76 349 2.0 7.0 0.00 0.00 0.00 60 1019.9
20260902043100 76 329 2.0 7.0 0.00 0.00 0.00 59 1020.0
20260902041558 77 344 2.0 7.0 0.00 0.00 0.00 59 1020.2
20260902040050 77 354 3.0 9.0 0.00 0.00 0.00 57 1020.4
20260902034546 77 314 4.0 9.0 0.00 0.00 0.00 56 1020.5
20260902023005 77 331 1.0 5.0 0.00 0.00 0.00 53 1021.9
20260902021502 79 298 1.0 4.0 0.00 0.00 0.00 52 1022.3
20260902020115 76 331 1.0 5.0 0.00 0.00 0.00 51 1022.6
20260902014556 77 178 1.0 6.0 0.00 0.00 0.00 55 1023.0
20260902013153 74 344 3.0 7.0 0.00 0.00 0.00 56 1023.4
20260902011547 75 314 3.0 6.0 0.00 0.00 0.00 59 1023.8
20260902010043 73 295 1.0 5.0 0.00 0.00 0.00 60 1024.3
20260902004539 72 8 3.0 9.0 0.00 0.00 0.00 61 1024.7
20260902003037 71 13 3.0 9.0 0.00 0.00 0.00 61 1024.9
20260902001534 70 339 3.0 7.0 0.00 0.00 0.00 64 1025.1
20260901234505 67 331 1.0 4.0 0.00 0.00 0.00 71 1025.6
20260901233002 67 135 1.0 5.0 0.00 0.00 0.00 72 1025.6
20260901231600 65 321 1.0 4.0 0.00 0.00 0.00 74 1025.8
20260901230105 64 89 1.0 5.0 0.00 0.00 0.00 79 1025.8
20260901224551 62 178 1.0 3.0 0.00 0.00 0.00 83 1025.9
20260901223058 61 46 1.0 4.0 0.00 0.00 0.00 87 1026.0
20260901221542 59 286 2.0 4.0 0.00 0.00 0.00 89 1026.0
20260901220058 57 306 1.0 4.0 0.00 0.00 0.00 90 1026.0
20260901214539 56 305 1.0 3.0 0.00 0.00 0.00 91 1025.8
20260901213045 55 145 1.0 4.0 0.00 0.00 0.00 92 1025.6
20260901210033 52 314 1.0 2.0 0.00 0.00 0.00 89 1025.2
20260901204536 53 286 1.0 2.0 0.00 0.00 0.00 89 1025.0
20260901203035 53 324 0.0 3.0 0.00 0.00 0.00 89 1025.0
20260901201525 53 178 0.0 2.0 0.00 0.00 0.00 89 1025.0
20260901200123 53 178 1.0 3.0 0.00 0.00 0.00 89 1024.9
20260901194620 53 127 0.0 2.0 0.00 0.00 0.00 89 1024.8
20260901193020 54 28 0.0 2.0 0.00 0.00 0.00 89 1024.8
20260901191620 54 117 0.0 2.0 0.00 0.00 0.00 89 1024.6
20260901190013 54 197 1.0 3.0 0.00 0.00 0.00 88 1024.5
20260901184526 55 135 0.0 2.0 0.00 0.00 0.00 89 1024.4
20260901183008 55 1 0.0 2.0 0.00 0.00 0.00 89 1024.4
20260901181516 56 277 1.0 4.0 0.00 0.00 0.00 89 1024.4
20260901180004 56 283 1.0 3.0 0.00 0.00 0.00 89 1024.3
20260901174602 56 284 2.0 4.0 0.00 0.00 0.00 89 1024.3
20260901174505 56 269 2.0 4.0 0.00 0.00 0.00 89 1024.2
20260901173058 56 291 3.0 5.0 0.00 0.00 0.00 88 1024.3
20260901171557 56 281 2.0 4.0 0.00 0.00 0.00 88 1024.6
20260901170023 56 306 2.0 6.0 0.00 0.00 0.00 88 1024.8
20260901164524 56 290 1.0 4.0 0.00 0.00 0.00 88 1024.9
20260901163021 56 295 1.0 2.0 0.00 0.00 0.00 87 1025.1
20260901161520 56 306 1.0 3.0 0.00 0.00 0.00 87 1025.2
20260901160021 56 347 0.0 4.0 0.00 0.00 0.00 87 1025.2
20260901154509 56 245 0.0 4.0 0.00 0.00 0.00 86 1025.4
20260901153014 57 286 1.0 3.0 0.00 0.00 0.00 86 1025.3
20260901151504 57 347 1.0 3.0 0.00 0.00 0.00 86 1025.4
20260901150005 58 300 2.0 5.0 0.00 0.00 0.00 86 1025.4
20260901144558 58 303 1.0 3.0 0.00 0.00 0.00 86 1025.6
20260901143120 58 298 2.0 3.0 0.00 0.00 0.00 87 1025.7
20260901141554 59 347 1.0 3.0 0.00 0.00 0.00 87 1025.8